Regional Weather Roundup
Issued by NWS

Home | Current Version | Previous Version | Graphics & Text | Print | Product List | Glossary Off
Versions: 1 2 3 4 5 6 7 8 9 10 11 12 13 14 15 16 17 18 19 20 21 22 23 24 25 26 27 28 29 30 31 32 33 34 35 36 37 38 39 40 41 42 43 44 45 46 47 48 49 50

000
ASUS43 KLSX 232307
RWRMO

WEATHER SUMMARY FOR MISSOURI
NATIONAL WEATHER SERVICE SPRINGFIELD MO
600 PM CDT WED AUG 23 2017

NOTE: "FAIR" INDICATES FEW OR NO CLOUDS BELOW 12,000 FEET WITH NO
       SIGNIFICANT WEATHER AND/OR OBSTRUCTIONS TO VISIBILITY.
       CURRENT SKY AND/OR WEATHER CONDITIONS ARE NOT AVAILABLE FOR
       CHILLICOTHE AND FARMINGTON.

MOZ001>031-035>038-043-044-053-054-240000-
...NORTHERN AND WESTERN MISSOURI...

CITY           SKY/WX    TMP DP  RH WIND       PRES   REMARKS
KANSAS CTY INT SUNNY     77  56  48 VRB7      30.07F
KANSAS C DTWN  SUNNY     80  56  43 NE3       30.05F
LEE`S SUMMIT   SUNNY     77  58  51 CALM      30.07F
ST JOSEPH      SUNNY     79  57  46 E6        30.06F
CHILLICOTHE      N/A     79  55  43 CALM      30.07F
KIRKSVILLE     SUNNY     79  49  34 MISG      30.07S

$$
MOZ066>068-077>081-088>096-101>105-240000-
...SOUTHWEST MISSOURI...

CITY           SKY/WX    TMP DP  RH WIND       PRES   REMARKS
SPRINGFIELD    SUNNY     78  54  43 NE9       30.04F
JOPLIN         SUNNY     80  58  46 NE6       30.05S
BRANSON        MOSUNNY   79  55  44 CALM      30.04F

$$
MOZ032>034-039>042-045>050-055>058-069>072-240000-
...CENTRAL MISSOURI...

CITY           SKY/WX    TMP DP  RH WIND       PRES   REMARKS
COLUMBIA       SUNNY     77  54  44 NE6       30.06S
JEFFERSON CITY SUNNY     79  54  41 CALM      30.05S
ROLLA          SUNNY     76  54  46 N7        30.07S
SEDALIA        SUNNY     79  58  48 NE3       30.07F
WHITEMAN AFB   SUNNY     77  57  50 NE6       30.06F
WARRENSBURG    SUNNY     77  55  47 N3        30.06F
OSAGE BEACH    SUNNY     76  55  48 NE6       30.07S

$$
MOZ051-052-059>065-240000-
...EAST CENTRAL MISSOURI...

CITY           SKY/WX    TMP DP  RH WIND       PRES   REMARKS
ST LOUIS INTL  MOSUNNY   77  52  41 N9        30.04F
SPIRIT OF STL  MOSUNNY   79  54  41 VRB5      30.03S
ST CHARLES     SUNNY     78  53  41 N6        30.03F

$$
MOZ072>076-082>087-097>100-106>115-240000-
...SOUTH CENTRAL AND SOUTHEAST MISSOURI...

CITY           SKY/WX    TMP DP  RH WIND       PRES   REMARKS
CAPE GIRARDEAU SUNNY     79  55  43 NE7       30.00F
FARMINGTON     SUNNY     77  54  44 NE8       30.05S
POPLAR BLUFF   SUNNY     80  58  46 NE3       29.99F
WEST PLAINS    SUNNY     78  52  40 NE7       30.05S

$$



USA.gov is the U.S. government's official web portal to all federal, state and local government web resources and services.